Regional Weather Roundup
Issued by NWS Upton, NY

Current Version | Previous Version | Graphics & Text | Print | Product List | Glossary Off
Versions: 1 2 3 4 5 6 7 8 9 10 11 12 13 14 15 16 17 18 19 20 21 22 23 24 25 26 27 28 29 30 31 32 33 34 35 36 37 38 39 40 41 42 43 44 45 46 47 48 49 50

000
ASUS41 KOKX 191709
RWROKX

REGIONAL WEATHER ROUNDUP
NATIONAL WEATHER SERVICE NEW YORK NY
100 PM EDT TUE SEP 19 2017

NOTE: "FAIR" INDICATES FEW OR NO CLOUDS BELOW 12,000 FEET WITH NO
SIGNIFICANT WEATHER AND/OR OBSTRUCTIONS TO VISIBILITY.

NYZ071-072-176-178-NJZ106-104-191800-
NEW YORK CITY METRO AREA

CITY           SKY/WX    TMP DP  RH WIND       PRES   REMARKS
Central Park   PTSUNNY   77  62  59 NE12G26   29.99F
Bronx Bot Gard   N/A     75  63  64 NE18      29.98F
LaGuardia APRT CLOUDY    76  65  68 NE17G28   29.97F
Kennedy INTL   PTSUNNY   77  63  61 NE24G32   29.96F
Breezy Point     N/A     73 N/A N/A NE17G26     N/A
Newark/Liberty CLOUDY    79  64  60 NE22G28   29.96F
Teterboro      CLOUDY    78  64  61 NE12G20   29.97F
$$

NYZ177-179-078>081-191800-
LONG ISLAND NEW YORK

CITY           SKY/WX    TMP DP  RH WIND       PRES   REMARKS
Jones Beach      N/A     70 N/A N/A NE30G37     N/A
Matinecock PT    N/A     72 N/A N/A NE23        N/A
Farmingdale    RAIN      70  65  84 NE18G32   29.95F
MacArthur/ISP  RAIN      68  67  96 NE21      29.94F FOG
Shirley        LGT RAIN  70  68  93 N10G21    29.95F
Mt Sinai Harb    N/A    N/A N/A N/A NE20G26     N/A
Westhampton    RAIN      68  65  90 N20G26    29.95F FOG
East Hampton   LGT RAIN  67  66  95 N15G23    29.95F
Montauk          N/A     69  67  93 NE13G22   29.98F
$$

NYZ052-065-067-191800-
HUDSON VALLEY

CITY           SKY/WX    TMP DP  RH WIND       PRES   REMARKS
White Plains   CLOUDY    75  63  66 N14G22    29.99F
Larchmont Harb   N/A     73 N/A N/A N20         N/A
Croton On Huds   N/A     75 N/A N/A NE9G16      N/A
Newburgh       PTSUNNY   75  66  73 NE17G23   30.04F
Montgomery     MOSUNNY   76  65  68 NE16      30.02F
Poughkeepsie   MOSUNNY   78  64  61 NE12      30.01F
Albany         MOSUNNY   78  62  57 NE7       30.07F
$$

NJZ001-105-106-008-010-013-015-019>022-104-191800-
NEW JERSEY

CITY           SKY/WX    TMP DP  RH WIND       PRES   REMARKS
Newark/Liberty CLOUDY    79  64  60 NE22G28   29.96F
Teterboro      CLOUDY    78  64  61 NE12G20   29.97F
Caldwell       CLOUDY    76  67  73 E10       29.98F
Somerville     NOT AVBL
Linden         CLOUDY    78  63  59 NE14G24   29.97F
Perth Amboy      N/A     75 N/A N/A NE21G30     N/A
Sussex         PTSUNNY   75  66  73 N12G20    30.01F
Andover          N/A     75  65  70 NE9       30.01F
Trenton        CLOUDY    77  66  68 NE16      29.95F
Millville      CLOUDY    75  69  81 NE18G29   29.91S
Atlantic City  LGT RAIN  71  68  90 N18G31    29.88F FOG
Wrightstown    PTSUNNY   74  66  75 NE16      29.91F
Toms River     LGT RAIN  69  67  93 N17G24    29.93F
Belmar         LGT RAIN  69  66  90 N17G25    29.94F
$$

PAZ047>061-062-071-191800-
EASTERN PENNSYLVANIA

CITY           SKY/WX    TMP DP  RH WIND       PRES   REMARKS
Philadelphia   PTSUNNY   77  64  64 NE15      29.94F
Allentown      MOSUNNY   79  66  64 NE12      29.99F
Scranton       MOSUNNY   77  63  61 E8        30.04F
$$

CTZ002-004>006-009-010-012-RIZ004-006-007-MAZ004-011-015-191800-
SOUTHERN NEW ENGLAND
 IN CT

CITY           SKY/WX    TMP DP  RH WIND       PRES   REMARKS
Bradley INTL   CLOUDY    73  64  73 N15       30.05F
Hartford       CLOUDY    75  66  73 N15       30.03F
Danbury        CLOUDY    72  63  73 NE10G20   30.04F
Wtrbury/Oxford CLOUDY    70  64  81 NE10G20   30.04F
Norwalk Harbor   N/A     73 N/A N/A N22G28      N/A
Bridgeport     LGT RAIN  73  65  75 NE18G25   29.99F
Meriden        CLOUDY    73  64  73 NE12      30.02F
New Haven      LGT RAIN  71  66  84 N12       29.98F
Chester        FAIR      70  66  88 N10       30.00F
Groton         CLOUDY    70  65  84 N20G30    29.97F
Wilimantic     LGT RAIN  70  66  87 NE15      30.04F

 IN RI

CITY           SKY/WX    TMP DP  RH WIND       PRES   REMARKS
Providence     CLOUDY    68  67  96 NE20      30.05F
Block Island   LGT RAIN  67  66  97 N20G26    29.97F FOG
Westerly       CLOUDY    72  66  81 N14G23    29.99F
 IN MA

CITY           SKY/WX    TMP DP  RH WIND       PRES   REMARKS
Boston         LGT RAIN  64  64 100 N16       30.08F
Worcester      LGT RAIN  63  61  93 NE9G17    30.10F VSB 1/4
Westfield      CLOUDY    75  64  68 NE10      30.06F
Provincetown   LGT RAIN  64  64 100 NE10      30.06F VSB 1
Nantucket      CLOUDY    70  69  97 NE21G26   29.96F
$$

ANZ330-335-338-340-345-350-353-355-191800-
COASTAL MARINE OBSERVATIONS


STATION/POSITION TIME  SKY/WX   TEMP    WIND        PRES    VSBY  WAVE
                                AIR SEA DIR/SP/G                  HT/PER
                 (UTC)          (F)     (DEG/KT/KT) (MB)    (MI)  (FT/S)
NY HARB ENTRANCE 1550            70 70   20/ 21/ 29 1013.1          9/13
20 S FIRE ISLAND 1650            69 68   30/ 25/ 33 1011.8         12/14
GREAT SOUTH BAY  1615            69 72   20/ 21/ 29   N/A
23 SSW MONTAUK P 1550            68 68              1013.3         12/13
15 E BARNEGAT LI 1630               70                N/A          12/11
HUDSON CANYON    1550            69 70   40/ 31/ 39 1007.4         19/13
KINGS POINT      1624            74 71   70/ 10/ 17 1016.1
EXECUTION ROCKS  1645            74      60/ 14/ 19   N/A
WESTERN LI SOUND NOT AVBL
CENTRAL LI SOUND 1545            69      40/ 16/ 19   N/A           2
EASTERN LI SOUND NOT AVBL
ROBBINS REEF     1624            73      40/ 25/ 29 1015.3
$$


>>>>>>>>>>>>>>>>>>>>>>>>>>>> KEY <<<<<<<<<<<<<<<<<<<<<<<<<<<
>                                                          <
>     SKY/WX - Sky Condition/Present Weather               <
>     TMP    - Temperature in Fahrenheit                   <
>     DP     - Dew Point in Fahrenheit                     <
>     RH     - Relative Humidity in Percent                <
>     WIND   - Direction (from) and Speed in MPH           <
>     PRES   - Mean Sea Level Pressure (inches of Hg)      <
>     WCI    - Wind Chill Index                            <
>     VSB    - VISIBILITY IN MILES                         <
>     HX     - HEAT INDEX                                  <
>     TC     - TEMPERATURE IN CELSIUS                      <
>     VRB    - VARIABLE WIND DIRECTION                     <
>                                                          <
>>>>>>>>>>>>>>>>>>>>>>>>>>>> KEY <<<<<<<<<<<<<<<<<<<<<<<<<<<



USA.gov is the U.S. government's official web portal to all federal, state and local government web resources and services.